Location: Focicchia
(42.2496°N, 9.2935°E)
Time: 02:56:06
(UTC+00:00)

X-37B - Pass Details

Date: 05 August 2021
Orbit: 381 x 393 km, 45.0° (Epoch: 29 August)

Event Time Altitude Azimuth Distance (km) Brightness Sun altitude
Exits shadow 02:52:46 26° 271° (W) 795 1.7 -14.5°
Maximum altitude 02:54:20 65° 346° (NNW) 421 0.8 -14.3°
Drops below altitude 10° 02:57:28 10° 70° (ENE) 1,398 4.6 -13.8°
Sets 02:59:33 0° 74° (ENE) 2,253 5.8 -13.5°
